Location: Franzen
(48.6167°N, 15.3833°E)
Time: 13:19:36
(UTC+00:00)

Cosmos 1356 - Pass Details

Date: 22 April 2021
Orbit: 438 x 442 km, 81.1° (Epoch: 16 May)

Event Time Altitude Azimuth Distance (km) Brightness Sun altitude
Rises 18:25:19 0° 354° (N) 2,450 7.6 -4.6°
Reaches altitude 10° 18:27:29 10° 2° (N) 1,573 6.5 -5.0°
Maximum altitude 18:30:44 39° 73° (ENE) 679 4.0 -5.5°
Drops below altitude 10° 18:33:57 10° 145° (SE) 1,557 5.6 -5.9°
Enters shadow 18:35:12 - 150° (SSE) 2,060 6.2 -6.1°
